This demonstration page uses our WeatherBlox Daily Observations layout. Learn more.

Left ArrowRight Arrow

Hourly Observations for November 18, 2015

Temp ( °F °C ) Dew Point ( °F °C ) Humidity (%) Winds ( mph kmh ) Pressure ( in mb ) Visibility ( mi km ) Precip ( " mm )
12:53 am 00:53 Cloudy with Light Rain 49 9.4 38 3.3 66 66 W 48 78 29.08 985 6 10 N/A
1:53 am 01:53 Cloudy with Light Rain 39 3.9 35 1.7 86 86 WNW 30 48 29.18 988 10 16 0.02 0.51
2:53 am 02:53 Windy with Snow Likely 35 1.7 32 undefined 89 89 WNW 28 44 29.28 992 9 14 N/A
3:21 am 03:21 Cloudy with Light Wintry Mix 34 1.1 32 undefined 92 92 WNW 25 41 29.38 995 10 16 N/A
3:36 am 03:36 Cloudy 33 0.6 30 -1.1 89 89 NW 26 43 29.41 996 10 16 N/A
3:53 am 03:53 Windy with Snow Likely 33 0.6 30 -1.1 89 89 NW 28 44 29.36 994 3 5 N/A
4:01 am 04:01 Windy with Snow Likely 32 undefined 29 -1.7 88 88 NW 26 43 29.47 998 2 3 N/A
4:14 am 04:14 Windy with Snow Likely 32 undefined 28 -2 87 87 NW 29 46 29.50 999 3 5 N/A
4:53 am 04:53 Cloudy 31 -0.6 26 -3.3 82 82 NW 28 44 29.47 998 10 16 N/A
5:53 am 05:53 Mostly Cloudy 30 -1.1 25 -3.9 82 82 WNW 24 39 29.57 1002 10 16 N/A
6:53 am 06:53 Clear 30 -1.1 24 -4.4 79 79 NW 23 37 29.65 1004 10 16 N/A
7:53 am 07:53 Mostly Cloudy 30 -1.1 21 -6.1 69 69 WNW 25 41 29.74 1007 10 16 N/A
8:53 am 08:53 Mostly Sunny 29 -1.7 20 -6.7 69 69 WNW 16 26 29.81 1010 10 16 N/A
9:53 am 09:53 Cloudy 30 -1.1 18 -7.8 61 61 WNW 20 31 29.86 1011 10 16 N/A
10:53 am 10:53 Cloudy 31 -0.6 18 -7.8 59 59 NW 17 28 29.89 1012 10 16 N/A
11:53 am 11:53 Mostly Cloudy 31 -0.6 18 -7.8 59 59 NW 17 28 29.90 1012 10 16 N/A
12:53 pm 12:53 Mostly Cloudy 32 undefined 18 -7.8 56 56 NW 23 37 29.92 1013 10 16 N/A
1:53 pm 13:53 Mostly Cloudy 31 -0.6 13 -10.6 47 47 NW 26 43 29.96 1014 10 16 N/A
2:53 pm 14:53 Cloudy 29 -1.7 16 -8.9 58 58 WNW 24 39 29.99 1016 10 16 N/A
3:53 pm 15:53 Mostly Sunny 27 -2.8 17 -8.3 66 66 WNW 21 33 30.03 1017 10 16 N/A
4:53 pm 16:53 Clear 25 -3.9 17 -8.3 72 72 W 16 26 30.06 1018 10 16 N/A
5:53 pm 17:53 Clear 24 -4.4 17 -8.3 75 75 W 16 26 30.08 1019 10 16 N/A
6:53 pm 18:53 Clear 23 -5 19 -7.2 85 85 WSW 16 26 30.08 1019 10 16 N/A
7:53 pm 19:53 Clear 22 -5.6 18 -7.8 85 85 WSW 13 20 30.09 1019 10 16 N/A
8:53 pm 20:53 Mostly Cloudy 23 -5 17 -8.3 78 78 SW 15 24 30.10 1019 10 16 N/A
9:53 pm 21:53 Partly Cloudy 22 -5.6 18 -7.8 85 85 SW 15 24 30.09 1019 10 16 N/A
10:53 pm 22:53 Clear 19 -7.2 17 -8.3 92 92 SW 15 24 30.09 1019 10 16 N/A
11:53 pm 23:53 Clear 17 -8.3 15 -9.4 92 92 SW 9 15 30.10 1019 10 16 N/A

Powered by AerisWeather